Weather in Plav

Montenegro     42°35′51″N   19°56′23″E
temp.,
°C
wind,
m/s
gust,
m/s
humid.,
%
clouds,
%
prec.,
mm/h
press.,
hPa
HPBL,
m
12 may, wed
wed1223:00+8w22860 0.0 101418
02:00+7w32890 0.0 101333
05:00+7w22645 0.0 101126
08:00+10wsw336651 0.0 1010335
11:00+11sw336993 0.0 1010587
14:00+10wsw3486100 1.2 1009799
17:00+10wsw35602 1.0 10081356
20:00+5w32912 1.0 101034
13 may, thu
thu1323:00+3wnw32921 0.0 101238
02:00+3wnw22830 0.0 101125
05:00+2w228655 0.0 101026
08:00+7sw237990 0.1 1008387
11:00+7ssw3382100 0.6 1008906
14:00+6sw349286 2.6 1009591
17:00+5wsw359454 0.5 1009469
20:00+5sw2398100 0.8 1010198
14 may, fri
fri1423:00+5w249779 1.2 1011338
02:00+4wsw2298100 1.8 1011124
05:00+4sw239768 0.7 1011114
08:00+6sw34836 1.4 1011614
11:00+9sw476073 0.1 10121577
14:00+10sw485819 0.3 10121712
17:00+9sw365959 0.1 10131473
20:00+4w2288100 0.1 101525
15 may, sat
sat1523:00+4w228662 0.1 101546
02:00+4ssw1298100 1.9 1014187
05:00+5sw2398100 3.3 1012383
08:00+5s3397100 4.6 1011354
11:00+4s1295100 5.3 1012305
14:00+4s1297100 11.9 1011399
17:00+4w1297100 1.6 1011337
20:00+4nw1196100 2.3 1011160
16 may, sun
sun1623:00+4nw129684 0.1 101291
02:00+3nnw239795 0.1 101270
05:00+3nnw229457 0.0 101233
08:00+7nnw11813 0.0 1011366
11:00+12s126547 0.1 10101196
14:00+13s226457 0.5 10091269
17:00+12sw227768 0.8 1010732
20:00+7wnw22947 1.3 101215